User: anonymous   Login
Location: Owatonna
(44.0840°N, 93.2260°W)
Time: 14:00:41
(UTC-06:00)
Language:

Cosmos 839 Rocket - Orbit

View from above orbital plane
View from above orbital plane
View from above satellite
View from above satellite

Ground track
Ground track

The orbit data is extracted from the following two-line orbital elements,

1 09013U 76067B   17059.82984060 -.00000068  00000-0 -45875-4 0  9997
2 09013  65.8645 216.7562 0706670 115.9192 346.7656 12.35327219833266
Epoch (UTC): 28 February 2017 19:54:58
Eccentricity: 0.0706670
inclination: 65.8645°
perigee height: 968 km
apogee height: 2085 km
right ascension of ascending node: 216.7562°
argument of perigee: 115.9192°
revolutions per day: 12.35327219
mean anomaly at epoch: 346.7656°
orbit number at epoch: 83326

The dashed part of the orbit path shows where the satellite is in the earth's shadow,  

DLR